Year,Month,Day,Hour,Minute,Value (Times are PST for insolation in W/m^2)
2010,07,03,00,00,0.00
2010,07,03,00,01,0.00
2010,07,03,00,02,0.00
2010,07,03,00,03,0.00
2010,07,03,00,04,0.00
2010,07,03,00,05,0.00
2010,07,03,00,06,0.00
2010,07,03,00,07,0.00
2010,07,03,00,08,0.00
2010,07,03,00,09,0.00
2010,07,03,00,10,0.00
2010,07,03,00,11,0.00
2010,07,03,00,12,0.00
2010,07,03,00,13,0.00
2010,07,03,00,14,0.00
2010,07,03,00,15,0.00
2010,07,03,00,16,0.00
2010,07,03,00,17,0.00
2010,07,03,00,18,0.00
2010,07,03,00,19,0.00
2010,07,03,00,20,0.00
2010,07,03,00,21,0.00
2010,07,03,00,22,0.00
2010,07,03,00,23,0.00
2010,07,03,00,24,0.00
2010,07,03,00,25,0.00
2010,07,03,00,26,0.00
2010,07,03,00,27,0.00
2010,07,03,00,28,0.00
2010,07,03,00,29,0.00
2010,07,03,00,30,0.00
2010,07,03,00,31,0.00
2010,07,03,00,32,0.00
2010,07,03,00,33,0.00
2010,07,03,00,34,0.00
2010,07,03,00,35,0.00
2010,07,03,00,36,0.00
2010,07,03,00,37,0.00
2010,07,03,00,38,0.00
2010,07,03,00,39,0.00
2010,07,03,00,40,0.00
2010,07,03,00,41,0.00
2010,07,03,00,42,0.00
2010,07,03,00,43,0.00
2010,07,03,00,44,0.00
2010,07,03,00,45,0.00
2010,07,03,00,46,0.00
2010,07,03,00,47,0.00
2010,07,03,00,48,0.00
2010,07,03,00,49,0.00
2010,07,03,00,50,0.00
2010,07,03,00,51,0.00
2010,07,03,00,52,0.00
2010,07,03,00,53,0.00
2010,07,03,00,54,0.00
2010,07,03,00,55,0.00
2010,07,03,00,56,0.00
2010,07,03,00,57,0.00
2010,07,03,00,58,0.00
2010,07,03,00,59,0.00
2010,07,03,01,00,0.00
2010,07,03,01,01,0.00
2010,07,03,01,02,0.00
2010,07,03,01,03,0.00
2010,07,03,01,04,0.00
2010,07,03,01,05,0.00
2010,07,03,01,06,0.00
2010,07,03,01,07,0.00
2010,07,03,01,08,0.00
2010,07,03,01,09,0.00
2010,07,03,01,10,0.00
2010,07,03,01,11,0.00
2010,07,03,01,12,0.00
2010,07,03,01,13,0.00
2010,07,03,01,14,0.00
2010,07,03,01,15,0.00
2010,07,03,01,16,0.00
2010,07,03,01,17,0.00
2010,07,03,01,18,0.00
2010,07,03,01,19,0.00
2010,07,03,01,20,0.00
2010,07,03,01,21,0.00
2010,07,03,01,22,0.00
2010,07,03,01,23,0.00
2010,07,03,01,24,0.00
2010,07,03,01,25,0.00
2010,07,03,01,26,0.00
2010,07,03,01,27,0.00
2010,07,03,01,28,0.00
2010,07,03,01,29,0.00
2010,07,03,01,30,0.00
2010,07,03,01,31,0.00
2010,07,03,01,32,0.00
2010,07,03,01,33,0.00
2010,07,03,01,34,0.00
2010,07,03,01,35,0.00
2010,07,03,01,36,0.00
2010,07,03,01,37,0.00
2010,07,03,01,38,0.00
2010,07,03,01,39,0.00
2010,07,03,01,40,0.00
2010,07,03,01,41,0.00
2010,07,03,01,42,0.00
2010,07,03,01,43,0.00
2010,07,03,01,44,0.00
2010,07,03,01,45,0.00
2010,07,03,01,46,0.00
2010,07,03,01,47,0.00
2010,07,03,01,48,0.00
2010,07,03,01,49,0.00
2010,07,03,01,50,0.00
2010,07,03,01,51,0.00
2010,07,03,01,52,0.00
2010,07,03,01,53,0.00
2010,07,03,01,54,0.00
2010,07,03,01,55,0.00
2010,07,03,01,56,0.00
2010,07,03,01,57,0.00
2010,07,03,01,58,0.00
2010,07,03,01,59,0.00
2010,07,03,02,00,0.00
2010,07,03,02,01,0.00
2010,07,03,02,02,0.00
2010,07,03,02,03,0.00
2010,07,03,02,04,0.00
2010,07,03,02,05,0.00
2010,07,03,02,06,0.00
2010,07,03,02,07,0.00
2010,07,03,02,08,0.00
2010,07,03,02,09,0.00
2010,07,03,02,10,0.00
2010,07,03,02,11,0.00
2010,07,03,02,12,0.00
2010,07,03,02,13,0.00
2010,07,03,02,14,0.00
2010,07,03,02,15,0.00
2010,07,03,02,16,0.00
2010,07,03,02,17,0.00
2010,07,03,02,18,0.00
2010,07,03,02,19,0.00
2010,07,03,02,20,0.00
2010,07,03,02,21,0.00
2010,07,03,02,22,0.00
2010,07,03,02,23,0.00
2010,07,03,02,24,0.00
2010,07,03,02,25,0.00
2010,07,03,02,26,0.00
2010,07,03,02,27,0.00
2010,07,03,02,28,0.00
2010,07,03,02,29,0.00
2010,07,03,02,30,0.00
2010,07,03,02,31,0.00
2010,07,03,02,32,0.00
2010,07,03,02,33,0.00
2010,07,03,02,34,0.00
2010,07,03,02,35,0.00
2010,07,03,02,36,0.00
2010,07,03,02,37,0.00
2010,07,03,02,38,0.00
2010,07,03,02,39,0.00
2010,07,03,02,40,0.00
2010,07,03,02,41,0.00
2010,07,03,02,42,0.00
2010,07,03,02,43,0.00
2010,07,03,02,44,0.00
2010,07,03,02,45,0.00
2010,07,03,02,46,0.00
2010,07,03,02,47,0.00
2010,07,03,02,48,0.00
2010,07,03,02,49,0.00
2010,07,03,02,50,0.00
2010,07,03,02,51,0.00
2010,07,03,02,52,0.00
2010,07,03,02,53,0.00
2010,07,03,02,54,0.00
2010,07,03,02,55,0.00
2010,07,03,02,56,0.00
2010,07,03,02,57,0.00
2010,07,03,02,58,0.00
2010,07,03,02,59,0.00
2010,07,03,03,00,0.00
2010,07,03,03,01,0.00
2010,07,03,03,02,0.00
2010,07,03,03,03,0.00
2010,07,03,03,04,0.00
2010,07,03,03,05,0.00
2010,07,03,03,06,0.00
2010,07,03,03,07,0.00
2010,07,03,03,08,0.00
2010,07,03,03,09,0.00
2010,07,03,03,10,0.00
2010,07,03,03,11,0.00
2010,07,03,03,12,0.00
2010,07,03,03,13,0.00
2010,07,03,03,14,0.00
2010,07,03,03,15,0.00
2010,07,03,03,16,0.00
2010,07,03,03,17,0.00
2010,07,03,03,18,0.00
2010,07,03,03,19,0.00
2010,07,03,03,20,0.00
2010,07,03,03,21,0.00
2010,07,03,03,22,0.00
2010,07,03,03,23,0.00
2010,07,03,03,24,0.00
2010,07,03,03,25,0.00
2010,07,03,03,26,0.00
2010,07,03,03,27,0.00
2010,07,03,03,28,0.00
2010,07,03,03,29,0.00
2010,07,03,03,30,0.00
2010,07,03,03,31,0.00
2010,07,03,03,32,0.00
2010,07,03,03,33,0.00
2010,07,03,03,34,0.00
2010,07,03,03,35,0.00
2010,07,03,03,36,0.00
2010,07,03,03,37,0.00
2010,07,03,03,38,0.00
2010,07,03,03,39,0.00
2010,07,03,03,40,0.00
2010,07,03,03,41,0.00
2010,07,03,03,42,0.00
2010,07,03,03,43,0.00
2010,07,03,03,44,0.00
2010,07,03,03,45,0.00
2010,07,03,03,46,0.00
2010,07,03,03,47,0.00
2010,07,03,03,48,0.00
2010,07,03,03,49,0.00
2010,07,03,03,50,0.00
2010,07,03,03,51,0.00
2010,07,03,03,52,0.00
2010,07,03,03,53,0.00
2010,07,03,03,54,0.00
2010,07,03,03,55,0.00
2010,07,03,03,56,0.00
2010,07,03,03,57,0.00
2010,07,03,03,58,0.00
2010,07,03,03,59,0.00
2010,07,03,04,00,0.00
2010,07,03,04,01,0.00
2010,07,03,04,02,0.00
2010,07,03,04,03,0.00
2010,07,03,04,04,0.00
2010,07,03,04,05,0.00
2010,07,03,04,06,0.00
2010,07,03,04,07,0.00
2010,07,03,04,08,0.00
2010,07,03,04,09,0.00
2010,07,03,04,10,0.00
2010,07,03,04,11,0.00
2010,07,03,04,12,0.00
2010,07,03,04,13,0.00
2010,07,03,04,14,0.00
2010,07,03,04,15,0.00
2010,07,03,04,16,0.00
2010,07,03,04,17,0.00
2010,07,03,04,18,0.00
2010,07,03,04,19,0.00
2010,07,03,04,20,0.00
2010,07,03,04,21,0.00
2010,07,03,04,22,0.00
2010,07,03,04,23,0.00
2010,07,03,04,24,0.00
2010,07,03,04,25,0.00
2010,07,03,04,26,0.00
2010,07,03,04,27,0.00
2010,07,03,04,28,0.00
2010,07,03,04,29,0.00
2010,07,03,04,30,0.00
2010,07,03,04,31,0.00
2010,07,03,04,32,0.00
2010,07,03,04,33,0.00
2010,07,03,04,34,0.00
2010,07,03,04,35,0.00
2010,07,03,04,36,0.00
2010,07,03,04,37,0.00
2010,07,03,04,38,0.00
2010,07,03,04,39,0.00
2010,07,03,04,40,0.00
2010,07,03,04,41,0.00
2010,07,03,04,42,0.00
2010,07,03,04,43,0.00
2010,07,03,04,44,0.00
2010,07,03,04,45,0.00
2010,07,03,04,46,0.00
2010,07,03,04,47,0.00
2010,07,03,04,48,0.00
2010,07,03,04,49,0.00
2010,07,03,04,50,0.00
2010,07,03,04,51,0.00
2010,07,03,04,52,0.00
2010,07,03,04,53,0.00
2010,07,03,04,54,0.00
2010,07,03,04,55,0.00
2010,07,03,04,56,0.00
2010,07,03,04,57,0.00
2010,07,03,04,58,0.00
2010,07,03,04,59,0.00
2010,07,03,05,00,0.00
2010,07,03,05,01,0.00
2010,07,03,05,02,0.00
2010,07,03,05,03,0.00
2010,07,03,05,04,0.00
2010,07,03,05,05,0.00
2010,07,03,05,06,0.00
2010,07,03,05,07,0.00
2010,07,03,05,08,0.00
2010,07,03,05,09,0.00
2010,07,03,05,10,0.00
2010,07,03,05,11,0.00
2010,07,03,05,12,0.00
2010,07,03,05,13,0.00
2010,07,03,05,14,0.00
2010,07,03,05,15,1.50
2010,07,03,05,16,5.00
2010,07,03,05,17,5.00
2010,07,03,05,18,5.00
2010,07,03,05,19,5.00
2010,07,03,05,20,6.60
2010,07,03,05,21,7.00
2010,07,03,05,22,7.00
2010,07,03,05,23,7.00
2010,07,03,05,24,7.30
2010,07,03,05,25,9.00
2010,07,03,05,26,9.00
2010,07,03,05,27,9.00
2010,07,03,05,28,9.00
2010,07,03,05,29,9.00
2010,07,03,05,30,10.30
2010,07,03,05,31,11.00
2010,07,03,05,32,11.00
2010,07,03,05,33,11.90
2010,07,03,05,34,12.00
2010,07,03,05,35,12.30
2010,07,03,05,36,14.00
2010,07,03,05,37,14.60
2010,07,03,05,38,16.00
2010,07,03,05,39,16.00
2010,07,03,05,40,17.10
2010,07,03,05,41,18.00
2010,07,03,05,42,18.00
2010,07,03,05,43,18.80
2010,07,03,05,44,19.00
2010,07,03,05,45,19.10
2010,07,03,05,46,21.00
2010,07,03,05,47,21.40
2010,07,03,05,48,23.00
2010,07,03,05,49,23.70
2010,07,03,05,50,26.40
2010,07,03,05,51,30.80
2010,07,03,05,52,34.30
2010,07,03,05,53,35.00
2010,07,03,05,54,33.40
2010,07,03,05,55,33.00
2010,07,03,05,56,42.50
2010,07,03,05,57,51.80
2010,07,03,05,58,56.40
2010,07,03,05,59,59.20
2010,07,03,06,00,62.00
2010,07,03,06,01,64.40
2010,07,03,06,02,68.20
2010,07,03,06,03,69.00
2010,07,03,06,04,66.10
2010,07,03,06,05,69.30
2010,07,03,06,06,71.90
2010,07,03,06,07,74.20
2010,07,03,06,08,77.60
2010,07,03,06,09,79.00
2010,07,03,06,10,72.00
2010,07,03,06,11,73.60
2010,07,03,06,12,75.10
2010,07,03,06,13,71.40
2010,07,03,06,14,66.40
2010,07,03,06,15,63.40
2010,07,03,06,16,64.60
2010,07,03,06,17,66.70
2010,07,03,06,18,70.00
2010,07,03,06,19,70.30
2010,07,03,06,20,72.40
2010,07,03,06,21,75.10
2010,07,03,06,22,75.20
2010,07,03,06,23,71.10
2010,07,03,06,24,70.00
2010,07,03,06,25,70.00
2010,07,03,06,26,69.30
2010,07,03,06,27,67.30
2010,07,03,06,28,67.00
2010,07,03,06,29,66.70
2010,07,03,06,30,61.40
2010,07,03,06,31,57.20
2010,07,03,06,32,53.70
2010,07,03,06,33,51.40
2010,07,03,06,34,49.00
2010,07,03,06,35,44.90
2010,07,03,06,36,40.70
2010,07,03,06,37,39.30
2010,07,03,06,38,37.30
2010,07,03,06,39,35.10
2010,07,03,06,40,33.10
2010,07,03,06,41,32.80
2010,07,03,06,42,32.00
2010,07,03,06,43,32.00
2010,07,03,06,44,32.40
2010,07,03,06,45,33.90
2010,07,03,06,46,36.20
2010,07,03,06,47,37.00
2010,07,03,06,48,40.90
2010,07,03,06,49,39.60
2010,07,03,06,50,39.00
2010,07,03,06,51,40.00
2010,07,03,06,52,40.30
2010,07,03,06,53,42.50
2010,07,03,06,54,45.00
2010,07,03,06,55,47.80
2010,07,03,06,56,51.00
2010,07,03,06,57,53.50
2010,07,03,06,58,55.30
2010,07,03,06,59,58.80
2010,07,03,07,00,62.50
2010,07,03,07,01,66.60
2010,07,03,07,02,70.00
2010,07,03,07,03,71.10
2010,07,03,07,04,78.30
2010,07,03,07,05,83.00
2010,07,03,07,06,85.80
2010,07,03,07,07,92.50
2010,07,03,07,08,97.80
2010,07,03,07,09,108.70
2010,07,03,07,10,120.00
2010,07,03,07,11,121.30
2010,07,03,07,12,116.50
2010,07,03,07,13,104.00
2010,07,03,07,14,104.00
2010,07,03,07,15,104.00
2010,07,03,07,16,105.70
2010,07,03,07,17,109.80
2010,07,03,07,18,110.10
2010,07,03,07,19,109.00
2010,07,03,07,20,105.60
2010,07,03,07,21,98.60
2010,07,03,07,22,97.00
2010,07,03,07,23,89.30
2010,07,03,07,24,88.00
2010,07,03,07,25,88.00
2010,07,03,07,26,88.00
2010,07,03,07,27,88.60
2010,07,03,07,28,90.00
2010,07,03,07,29,89.10
2010,07,03,07,30,88.00
2010,07,03,07,31,86.70
2010,07,03,07,32,86.00
2010,07,03,07,33,84.30
2010,07,03,07,34,84.00
2010,07,03,07,35,84.00
2010,07,03,07,36,84.00
2010,07,03,07,37,84.00
2010,07,03,07,38,84.00
2010,07,03,07,39,84.80
2010,07,03,07,40,87.10
2010,07,03,07,41,89.70
2010,07,03,07,42,94.90
2010,07,03,07,43,97.80
2010,07,03,07,44,101.20
2010,07,03,07,45,102.00
2010,07,03,07,46,102.00
2010,07,03,07,47,102.00
2010,07,03,07,48,100.00
2010,07,03,07,49,91.30
2010,07,03,07,50,87.20
2010,07,03,07,51,85.10
2010,07,03,07,52,84.00
2010,07,03,07,53,84.00
2010,07,03,07,54,85.40
2010,07,03,07,55,87.70
2010,07,03,07,56,88.00
2010,07,03,07,57,91.00
2010,07,03,07,58,91.00
2010,07,03,07,59,91.00
2010,07,03,08,00,90.70
2010,07,03,08,01,90.00
2010,07,03,08,02,90.00
2010,07,03,08,03,85.00
2010,07,03,08,04,79.70
2010,07,03,08,05,77.50
2010,07,03,08,06,78.60
2010,07,03,08,07,80.80
2010,07,03,08,08,83.10
2010,07,03,08,09,86.40
2010,07,03,08,10,91.20
2010,07,03,08,11,96.80
2010,07,03,08,12,102.00
2010,07,03,08,13,106.90
2010,07,03,08,14,111.20
2010,07,03,08,15,114.90
2010,07,03,08,16,119.10
2010,07,03,08,17,122.40
2010,07,03,08,18,127.70
2010,07,03,08,19,132.20
2010,07,03,08,20,135.00
2010,07,03,08,21,136.30
2010,07,03,08,22,141.30
2010,07,03,08,23,142.00
2010,07,03,08,24,142.90
2010,07,03,08,25,142.80
2010,07,03,08,26,142.00
2010,07,03,08,27,142.00
2010,07,03,08,28,143.60
2010,07,03,08,29,145.80
2010,07,03,08,30,148.20
2010,07,03,08,31,151.30
2010,07,03,08,32,153.40
2010,07,03,08,33,155.00
2010,07,03,08,34,155.00
2010,07,03,08,35,154.10
2010,07,03,08,36,151.90
2010,07,03,08,37,149.00
2010,07,03,08,38,145.20
2010,07,03,08,39,144.00
2010,07,03,08,40,135.90
2010,07,03,08,41,131.80
2010,07,03,08,42,127.60
2010,07,03,08,43,125.00
2010,07,03,08,44,125.00
2010,07,03,08,45,125.00
2010,07,03,08,46,126.00
2010,07,03,08,47,129.80
2010,07,03,08,48,134.00
2010,07,03,08,49,135.00
2010,07,03,08,50,140.60
2010,07,03,08,51,145.80
2010,07,03,08,52,148.90
2010,07,03,08,53,151.20
2010,07,03,08,54,153.00
2010,07,03,08,55,153.90
2010,07,03,08,56,156.80
2010,07,03,08,57,160.00
2010,07,03,08,58,163.60
2010,07,03,08,59,167.60
2010,07,03,09,00,170.40
2010,07,03,09,01,171.80
2010,07,03,09,02,172.00
2010,07,03,09,03,172.00
2010,07,03,09,04,172.00
2010,07,03,09,05,172.00
2010,07,03,09,06,172.00
2010,07,03,09,07,172.00
2010,07,03,09,08,172.00
2010,07,03,09,09,171.40
2010,07,03,09,10,169.70
2010,07,03,09,11,169.00
2010,07,03,09,12,167.30
2010,07,03,09,13,167.00
2010,07,03,09,14,161.80
2010,07,03,09,15,159.70
2010,07,03,09,16,157.50
2010,07,03,09,17,156.00
2010,07,03,09,18,156.90
2010,07,03,09,19,158.00
2010,07,03,09,20,159.10
2010,07,03,09,21,160.00
2010,07,03,09,22,163.90
2010,07,03,09,23,168.30
2010,07,03,09,24,173.50
2010,07,03,09,25,178.00
2010,07,03,09,26,179.50
2010,07,03,09,27,188.90
2010,07,03,09,28,192.90
2010,07,03,09,29,195.80
2010,07,03,09,30,197.90
2010,07,03,09,31,199.00
2010,07,03,09,32,199.00
2010,07,03,09,33,199.70
2010,07,03,09,34,201.80
2010,07,03,09,35,202.00
2010,07,03,09,36,202.20
2010,07,03,09,37,206.00
2010,07,03,09,38,206.20
2010,07,03,09,39,207.00
2010,07,03,09,40,207.00
2010,07,03,09,41,207.00
2010,07,03,09,42,206.40
2010,07,03,09,43,206.00
2010,07,03,09,44,204.40
2010,07,03,09,45,204.00
2010,07,03,09,46,204.00
2010,07,03,09,47,204.10
2010,07,03,09,48,206.00
2010,07,03,09,49,206.20
2010,07,03,09,50,207.00
2010,07,03,09,51,207.00
2010,07,03,09,52,207.00
2010,07,03,09,53,208.20
2010,07,03,09,54,210.30
2010,07,03,09,55,212.60
2010,07,03,09,56,213.80
2010,07,03,09,57,214.00
2010,07,03,09,58,216.00
2010,07,03,09,59,216.60
2010,07,03,10,00,220.70
2010,07,03,10,01,224.20
2010,07,03,10,02,228.90
2010,07,03,10,03,234.50
2010,07,03,10,04,240.50
2010,07,03,10,05,247.70
2010,07,03,10,06,252.10
2010,07,03,10,07,257.20
2010,07,03,10,08,261.60
2010,07,03,10,09,264.00
2010,07,03,10,10,263.70
2010,07,03,10,11,261.50
2010,07,03,10,12,260.00
2010,07,03,10,13,256.40
2010,07,03,10,14,248.50
2010,07,03,10,15,244.90
2010,07,03,10,16,244.00
2010,07,03,10,17,245.40
2010,07,03,10,18,246.00
2010,07,03,10,19,250.50
2010,07,03,10,20,253.10
2010,07,03,10,21,255.00
2010,07,03,10,22,255.00
2010,07,03,10,23,257.10
2010,07,03,10,24,264.10
2010,07,03,10,25,269.40
2010,07,03,10,26,272.00
2010,07,03,10,27,272.00
2010,07,03,10,28,290.80
2010,07,03,10,29,304.60
2010,07,03,10,30,312.60
2010,07,03,10,31,313.50
2010,07,03,10,32,322.30
2010,07,03,10,33,325.40
2010,07,03,10,34,327.60
2010,07,03,10,35,329.40
2010,07,03,10,36,331.00
2010,07,03,10,37,333.20
2010,07,03,10,38,335.30
2010,07,03,10,39,337.60
2010,07,03,10,40,336.40
2010,07,03,10,41,336.00
2010,07,03,10,42,334.10
2010,07,03,10,43,334.00
2010,07,03,10,44,333.50
2010,07,03,10,45,332.00
2010,07,03,10,46,332.80
2010,07,03,10,47,334.00
2010,07,03,10,48,336.20
2010,07,03,10,49,341.20
2010,07,03,10,50,348.40
2010,07,03,10,51,355.60
2010,07,03,10,52,365.90
2010,07,03,10,53,376.50
2010,07,03,10,54,386.10
2010,07,03,10,55,393.10
2010,07,03,10,56,396.30
2010,07,03,10,57,397.80
2010,07,03,10,58,401.00
2010,07,03,10,59,403.00
2010,07,03,11,00,405.00
2010,07,03,11,01,402.20
2010,07,03,11,02,394.80
2010,07,03,11,03,387.70
2010,07,03,11,04,381.00
2010,07,03,11,05,382.00
2010,07,03,11,06,390.00
2010,07,03,11,07,404.30
2010,07,03,11,08,415.00
2010,07,03,11,09,415.00
2010,07,03,11,10,432.00
2010,07,03,11,11,450.00
2010,07,03,11,12,452.00
2010,07,03,11,13,452.00
2010,07,03,11,14,448.20
2010,07,03,11,15,446.00
2010,07,03,11,16,446.60
2010,07,03,11,17,451.10
2010,07,03,11,18,457.10
2010,07,03,11,19,464.30
2010,07,03,11,20,471.10
2010,07,03,11,21,478.10
2010,07,03,11,22,484.50
2010,07,03,11,23,488.50
2010,07,03,11,24,489.80
2010,07,03,11,25,496.30
2010,07,03,11,26,503.00
2010,07,03,11,27,503.00
2010,07,03,11,28,500.10
2010,07,03,11,29,491.00
2010,07,03,11,30,491.80
2010,07,03,11,31,504.00
2010,07,03,11,32,509.80
2010,07,03,11,33,540.70
2010,07,03,11,34,557.00
2010,07,03,11,35,557.00
2010,07,03,11,36,573.20
2010,07,03,11,38,603.00
2010,07,03,11,39,620.10
2010,07,03,11,40,658.40
2010,07,03,11,41,608.00
2010,07,03,11,42,638.00
2010,07,03,11,43,723.60
2010,07,03,11,44,743.40
2010,07,03,11,45,763.50
2010,07,03,11,46,763.00
2010,07,03,11,47,761.00
2010,07,03,11,48,761.00
2010,07,03,11,49,761.00
2010,07,03,11,50,761.00
2010,07,03,11,51,761.00
2010,07,03,11,52,730.20
2010,07,03,11,53,658.50
2010,07,03,11,54,633.00
2010,07,03,11,55,633.00
2010,07,03,11,56,633.00
2010,07,03,11,57,633.00
2010,07,03,11,58,633.00
2010,07,03,11,59,633.00
2010,07,03,12,00,633.00
2010,07,03,12,01,633.00
2010,07,03,12,02,633.00
2010,07,03,12,03,789.20
2010,07,03,12,04,993.50
2010,07,03,12,05,972.00
2010,07,03,12,06,953.60
2010,07,03,12,07,938.30
2010,07,03,12,08,935.00
2010,07,03,12,09,917.90
2010,07,03,12,10,915.90
2010,07,03,12,11,914.00
2010,07,03,12,12,914.90
2010,07,03,12,13,916.80
2010,07,03,12,14,911.10
2010,07,03,12,15,903.50
2010,07,03,12,16,892.30
2010,07,03,12,17,886.00
2010,07,03,12,18,879.70
2010,07,03,12,19,875.30
2010,07,03,12,20,874.10
2010,07,03,12,21,874.10
2010,07,03,12,22,876.00
2010,07,03,12,23,882.90
2010,07,03,12,24,881.80
2010,07,03,12,25,876.10
2010,07,03,12,26,880.00
2010,07,03,12,27,881.00
2010,07,03,12,28,879.70
2010,07,03,12,29,877.60
2010,07,03,12,30,875.30
2010,07,03,12,31,876.80
2010,07,03,12,32,874.00
2010,07,03,12,33,874.00
2010,07,03,12,34,874.80
2010,07,03,12,35,877.00
2010,07,03,12,36,877.00
2010,07,03,12,37,878.00
2010,07,03,12,38,879.00
2010,07,03,12,39,877.70
2010,07,03,12,40,874.90
2010,07,03,12,41,874.00
2010,07,03,12,42,874.00
2010,07,03,12,43,870.30
2010,07,03,12,44,872.30
2010,07,03,12,45,874.20
2010,07,03,12,46,875.00
2010,07,03,12,47,875.80
2010,07,03,12,48,877.00
2010,07,03,12,49,877.00
2010,07,03,12,50,878.40
2010,07,03,12,51,879.00
2010,07,03,12,52,879.00
2010,07,03,12,53,879.00
2010,07,03,12,54,879.00
2010,07,03,12,55,879.30
2010,07,03,12,56,880.50
2010,07,03,12,57,879.70
2010,07,03,12,58,880.20
2010,07,03,12,59,880.00
2010,07,03,13,00,879.90
2010,07,03,13,01,879.00
2010,07,03,13,02,880.40
2010,07,03,13,03,881.00
2010,07,03,13,04,881.00
2010,07,03,13,05,881.10
2010,07,03,13,06,881.80
2010,07,03,13,07,881.00
2010,07,03,13,08,881.30
2010,07,03,13,09,882.80
2010,07,03,13,10,883.00
2010,07,03,13,11,882.00
2010,07,03,13,12,883.30
2010,07,03,13,13,884.00
2010,07,03,13,14,884.00
2010,07,03,13,15,885.80
2010,07,03,13,16,888.00
2010,07,03,13,17,889.30
2010,07,03,13,18,892.00
2010,07,03,13,19,895.00
2010,07,03,13,20,904.60
2010,07,03,13,21,933.00
2010,07,03,13,22,960.80
2010,07,03,13,23,982.70
2010,07,03,13,24,995.00
2010,07,03,13,25,998.00
2010,07,03,13,26,1016.00
2010,07,03,13,27,933.50
2010,07,03,13,28,858.00
2010,07,03,13,29,858.00
2010,07,03,13,30,796.40
2010,07,03,13,31,682.00
2010,07,03,13,32,682.00
2010,07,03,13,33,889.20
2010,07,03,13,34,991.80
2010,07,03,13,35,969.00
2010,07,03,13,36,967.00
2010,07,03,13,37,948.10
2010,07,03,13,38,946.80
2010,07,03,13,39,952.40
2010,07,03,13,40,1004.80
2010,07,03,13,41,1028.00
2010,07,03,13,42,1028.00
2010,07,03,13,43,1028.00
2010,07,03,13,44,1028.00
2010,07,03,13,45,869.30
2010,07,03,13,46,796.00
2010,07,03,13,47,881.90
2010,07,03,13,48,898.00
2010,07,03,13,49,832.40
2010,07,03,13,50,902.00
2010,07,03,13,51,891.10
2010,07,03,13,52,860.70
2010,07,03,13,53,887.80
2010,07,03,13,54,902.00
2010,07,03,13,55,898.70
2010,07,03,13,56,895.30
2010,07,03,13,57,893.60
2010,07,03,13,58,891.30
2010,07,03,13,59,891.00
2010,07,03,14,00,888.90
2010,07,03,14,01,888.50
2010,07,03,14,02,891.00
2010,07,03,14,03,891.60
2010,07,03,14,04,895.10
2010,07,03,14,05,897.00
2010,07,03,14,06,896.00
2010,07,03,14,07,907.70
2010,07,03,14,08,919.40
2010,07,03,14,09,918.60
2010,07,03,14,10,905.50
2010,07,03,14,11,891.70
2010,07,03,14,12,891.20
2010,07,03,14,13,893.50
2010,07,03,14,14,898.80
2010,07,03,14,15,907.00
2010,07,03,14,16,906.00
2010,07,03,14,17,889.10
2010,07,03,14,18,875.80
2010,07,03,14,19,871.00
2010,07,03,14,20,865.80
2010,07,03,14,21,860.30
2010,07,03,14,22,858.00
2010,07,03,14,23,857.40
2010,07,03,14,24,854.00
2010,07,03,14,25,853.70
2010,07,03,14,26,852.20
2010,07,03,14,27,850.00
2010,07,03,14,28,849.00
2010,07,03,14,29,850.30
2010,07,03,14,30,848.00
2010,07,03,14,31,846.10
2010,07,03,14,32,846.00
2010,07,03,14,33,846.00
2010,07,03,14,34,845.80
2010,07,03,14,35,843.50
2010,07,03,14,36,841.30
2010,07,03,14,37,840.00
2010,07,03,14,38,840.00
2010,07,03,14,39,838.30
2010,07,03,14,40,837.00
2010,07,03,14,41,835.60
2010,07,03,14,42,835.00
2010,07,03,14,43,830.50
2010,07,03,14,44,830.20
2010,07,03,14,45,833.00
2010,07,03,14,46,832.50
2010,07,03,14,47,831.00
2010,07,03,14,48,830.60
2010,07,03,14,49,829.00
2010,07,03,14,50,826.90
2010,07,03,14,51,824.70
2010,07,03,14,52,824.00
2010,07,03,14,53,824.00
2010,07,03,14,54,823.10
2010,07,03,14,55,821.10
2010,07,03,14,56,820.40
2010,07,03,14,57,817.00
2010,07,03,14,58,816.70
2010,07,03,14,59,815.20
2010,07,03,15,00,813.10
2010,07,03,15,01,812.00
2010,07,03,15,02,812.00
2010,07,03,15,03,809.90
2010,07,03,15,04,809.00
2010,07,03,15,05,807.10
2010,07,03,15,06,804.90
2010,07,03,15,07,802.80
2010,07,03,15,08,801.60
2010,07,03,15,09,800.00
2010,07,03,15,10,799.20
2010,07,03,15,11,798.00
2010,07,03,15,12,796.80
2010,07,03,15,13,796.00
2010,07,03,15,14,795.30
2010,07,03,15,15,795.00
2010,07,03,15,16,793.20
2010,07,03,15,17,790.80
2010,07,03,15,18,788.80
2010,07,03,15,19,787.50
2010,07,03,15,20,785.30
2010,07,03,15,21,783.20
2010,07,03,15,22,781.00
2010,07,03,15,23,780.00
2010,07,03,15,24,780.00
2010,07,03,15,25,779.20
2010,07,03,15,26,775.40
2010,07,03,15,27,773.10
2010,07,03,15,28,774.80
2010,07,03,15,29,772.00
2010,07,03,15,30,771.20
2010,07,03,15,31,768.00
2010,07,03,15,32,767.20
2010,07,03,15,33,766.00
2010,07,03,15,34,765.40
2010,07,03,15,35,765.00
2010,07,03,15,36,761.80
2010,07,03,15,37,759.40
2010,07,03,15,38,758.10
2010,07,03,15,39,756.10
2010,07,03,15,40,755.20
2010,07,03,15,41,751.00
2010,07,03,15,42,750.30
2010,07,03,15,43,748.20
2010,07,03,15,44,748.10
2010,07,03,15,45,749.00
2010,07,03,15,46,745.70
2010,07,03,15,47,742.60
2010,07,03,15,48,740.40
2010,07,03,15,49,737.20
2010,07,03,15,50,736.80
2010,07,03,15,51,733.00
2010,07,03,15,52,733.00
2010,07,03,15,53,733.00
2010,07,03,15,54,730.90
2010,07,03,15,55,728.00
2010,07,03,15,56,728.00
2010,07,03,15,57,725.40
2010,07,03,15,58,720.10
2010,07,03,15,59,719.00
2010,07,03,16,00,719.00
2010,07,03,16,01,715.00
2010,07,03,16,02,715.00
2010,07,03,16,03,714.40
2010,07,03,16,04,711.40
2010,07,03,16,05,709.20
2010,07,03,16,06,706.50
2010,07,03,16,07,705.00
2010,07,03,16,08,705.00
2010,07,03,16,09,699.80
2010,07,03,16,10,698.00
2010,07,03,16,11,698.00
2010,07,03,16,12,695.80
2010,07,03,16,13,692.70
2010,07,03,16,14,690.60
2010,07,03,16,15,689.00
2010,07,03,16,16,688.20
2010,07,03,16,17,684.50
2010,07,03,16,18,680.90
2010,07,03,16,19,679.30
2010,07,03,16,20,679.00
2010,07,03,16,21,675.80
2010,07,03,16,22,675.00
2010,07,03,16,23,671.20
2010,07,03,16,24,669.60
2010,07,03,16,25,665.50
2010,07,03,16,26,664.00
2010,07,03,16,27,662.90
2010,07,03,16,28,660.00
2010,07,03,16,29,657.20
2010,07,03,16,30,654.70
2010,07,03,16,31,652.40
2010,07,03,16,32,652.00
2010,07,03,16,33,649.30
2010,07,03,16,34,646.60
2010,07,03,16,35,643.00
2010,07,03,16,36,642.80
2010,07,03,16,37,641.30
2010,07,03,16,38,640.00
2010,07,03,16,39,638.00
2010,07,03,16,40,636.00
2010,07,03,16,41,632.70
2010,07,03,16,42,628.80
2010,07,03,16,43,628.00
2010,07,03,16,44,624.40
2010,07,03,16,45,621.90
2010,07,03,16,46,620.70
2010,07,03,16,47,618.60
2010,07,03,16,48,617.00
2010,07,03,16,49,615.40
2010,07,03,16,50,610.50
2010,07,03,16,51,606.80
2010,07,03,16,52,605.40
2010,07,03,16,53,602.00
2010,07,03,16,54,601.00
2010,07,03,16,55,599.10
2010,07,03,16,56,597.80
2010,07,03,16,57,596.00
2010,07,03,16,58,595.00
2010,07,03,16,59,590.30
2010,07,03,17,00,587.00
2010,07,03,17,01,586.00
2010,07,03,17,02,583.30
2010,07,03,17,03,580.70
2010,07,03,17,04,578.40
2010,07,03,17,05,575.30
2010,07,03,17,06,573.20
2010,07,03,17,07,570.80
2010,07,03,17,08,568.00
2010,07,03,17,09,567.10
2010,07,03,17,10,563.70